Location: Lhota
(50.0887°N, 14.0116°E)
Time: 07:04:31
(UTC+00:00)

Cosmos 1624 Rocket - Pass Details

Date: 19 May 2025
Orbit: 753 x 779 km, 74.0° (Epoch: 22 June)

Event Time Altitude Azimuth Distance (km) Brightness Sun altitude
Rises 22:44:43 0° 338° (NNW) 3,223 8.6 -19.8°
Reaches altitude 10° 22:47:08 10° 342° (NNW) 2,296 7.6 -19.9°
Maximum altitude 22:52:16 58° 62° (ENE) 889 4.4 -19.9°
Enters shadow 22:54:56 28° 130° (SE) 1,418 5.0 -19.9°
